Temp
59 59 61 61 61 60 60 60 60 61 61 61 61 61 61 60 61 61 61 62 62 61 62 62 61 61 61 62 61 62 61 61 59 60 62 63 63 63 62 62 63 62 63
60 60 61 61 60 59 60 60 61 61 61 61 61 61 61 61 61 61 62 63 62 61 61 61 61 62 61 62 61 61 61 62 61 59 61 61 62 62 61 60 61 64 64
60 60 60 60 60 59 60 60 61 61 61 61 61 61 61 61 62 63 63 62 61 62 62 62 62 62 61 62 62 61 61 61 62 60 60 61 61 61 59 60 61 60 63
60 60 59 60 60 59 60 61 61 62 61 61 61 61 61 61 62 62 62 61 61 62 62 62 63 63 62 62 61 61 61 61 61 60 59 59 59 59 59 58 57 59 62
60 59 59 60 60 61 61 61 61 61 61 62 61 61 61 61 61 61 62 62 61 61 62 62 62 61 59 60 62 61 62 60 60 59 58 58 57 57 57 57 59 59 60
60 60 60 61 61 60 60 60 60 62 62 62 61 62 61 60 50 53 59 61 62 62 60 60 60 58 57 54 55 55 59 60 59 58 57 56 56 57 59 60 59 59 60
60 61 61 61 61 61 61 60 59 59 61 61 61 62 60 58 48 49 53 62 61 61 60 60 61 60 60 61 53 54 54 54 56 59 58 59 59 60 60 58 59 60 59
60 61 61 62 61 61 60 59 57 58 59 59 59 60 59 56 47 48 52 61 61 61 62 62 62 62 60 61 62 60 60 60 61 64 63 62 63 61 63 62 60 56 57
61 61 62 63 61 60 59 58 57 57 57 58 59 60 59 55 46 48 57 61 60 60 62 62 61 61 48 51 60 59 58 57 49 47 47 47 47 49 56 62 59 61 57
62 63 63 63 61 60 59 58 57 57 57 59 59 59 55 56 45 47 56 60 59 60 60 59 52 58 46 49 61 59 58 57 56 56 58 54 52 51 50 60 60 58 55
64 63 62 61 61 60 58 58 57 56 56 57 57 57 58 57 53 45 50 61 61 60 60 59 61 47 45 46 50 59 58 56 52 57 56 56 56 56 56 56 56 59 57
64 64 61 60 64 61 58 57 57 56 55 54 55 55 56 56 49 45 47 51 53 61 61 61 58 45 44 44 51 46 45 51 58 57 56 55 56 55 54 54 53 53 54
63 61 60 60 61 60 59 57 56 55 56 54 56 57 56 56 55 46 44 45 48 59 61 55 45 43 42 45 45 43 47 58 58 57 56 55 55 53 52 52 52 51 50
62 60 59 60 58 59 60 60 59 56 55 57 57 57 56 56 56 55 55 53 48 52 49 50 47 46 45 48 50 50 58 58 59 58 56 54 53 53 53 55 51 51 50
62 61 59 61 60 58 60 59 61 60 59 58 58 58 56 56 57 52 53 56 57 52 50 52 53 53 54 53 54 55 56 56 56 54 54 53 54 53 52 53 53 52 50
61 61 61 61 60 60 59 56 44 48 48 46 47 56 59 52 46 44 44 44 42 43 54 54 54 54 55 55 55 55 56 54 56 56 55 55 54 54 52 52 53 51 48
63 61 61 60 61 60 60 60 58 53 44 44 43 45 48 52 43 43 42 40 40 46 58 55 56 55 56 56 57 57 56 56 54 55 55 54 53 53 52 51 50 50 47
64 54 62 62 63 62 62 62 63 61 59 58 46 47 43 44 43 41 40 43 48 49 56 56 56 56 56 56 56 56 56 53 54 53 53 53 53 52 51 50 50 48 46
66 63 64 64 63 61 63 62 62 62 62 60 53 46 45 41 40 39 41 58 57 54 55 56 58 57 56 57 57 56 55 54 53 52 51 52 52 53 51 51 50 42 42
67 56 59 63 62 61 62 62 61 61 60 61 59 61 48 48 51 49 49 54 58 59 58 58 58 57 56 57 56 56 54 49 50 51 52 52 52 52 51 50 49 45 43
68 61 55 64 63 63 62 62 61 62 61 61 61 59 45 58 59 57 54 53 57 60 60 59 59 59 58 57 56 55 55 54 53 52 51 52 50 50 51 48 46 44 43
68 64 64 65 65 63 63 63 62 62 62 62 62 57 40 59 62 60 59 57 58 60 61 60 59 60 59 58 56 55 55 53 52 52 52 51 51 49 47 44 44 42 40
67 64 65 66 65 55 58 63 63 63 63 63 63 60 51 57 61 61 60 59 58 59 60 59 59 59 60 59 58 58 54 53 53 54 52 51 48 45 44 41 40 39 39
67 65 65 66 64 62 63 63 63 54 64 63 62 61 58 58 59 61 61 61 60 60 61 59 60 60 58 58 58 58 59 58 55 54 52 48 45 43 42 41 40 38 38
66 63 63 63 64 62 63 62 62 63 62 63 62 62 62 60 60 60 61 61 60 59 58 59 60 60 58 57 56 55 46 41 51 47 50 48 44 42 41 39 38 37 36
67 65 64 64 63 62 62 61 60 62 62 62 62 61 61 59 60 59 58 56 57 57 57 57 57 57 55 55 53 43 40 40 43 44 48 46 43 41 40 38 38 37 37
MSLP
1007.91 1008.05 1008.25 1008.25 1008.48 1008.60 1008.45 1008.47 1008.63 1008.78 1008.89 1009.14 1009.29 1009.49 1009.73 1010.00 1010.20 1010.40 1010.58 1010.72 1010.96 1011.19 1011.45 1011.62 1012.00 1012.39 1012.71 1012.89 1013.16 1013.78 1014.20 1014.55 1015.35 1015.98 1016.64 1017.54 1018.20 1018.72 1019.64 1020.38 1021.09 1021.64 1021.97
1007.87 1008.02 1008.30 1008.35 1008.59 1008.70 1008.57 1008.56 1008.62 1008.77 1008.88 1009.15 1009.34 1009.53 1009.89 1010.17 1010.50 1010.71 1010.81 1010.96 1011.20 1011.41 1011.68 1011.88 1012.20 1012.57 1013.09 1013.46 1013.59 1014.18 1014.65 1014.86 1015.21 1015.97 1017.06 1017.98 1018.60 1019.32 1020.00 1020.71 1021.48 1021.63 1022.02
1007.82 1008.06 1008.40 1008.55 1008.72 1008.81 1008.67 1008.60 1008.73 1008.84 1009.03 1009.27 1009.49 1009.76 1010.11 1010.38 1010.55 1010.81 1010.97 1011.23 1011.53 1011.69 1011.93 1012.13 1012.40 1012.64 1013.13 1013.62 1014.00 1014.35 1014.75 1015.30 1015.92 1016.43 1017.23 1018.25 1019.02 1019.82 1020.49 1021.16 1021.33 1021.72 1021.77
1007.80 1008.16 1008.46 1008.62 1008.79 1008.86 1008.81 1008.69 1008.82 1009.04 1009.21 1009.49 1009.75 1009.99 1010.34 1010.65 1010.89 1011.07 1011.25 1011.51 1011.79 1012.01 1012.24 1012.56 1012.79 1012.99 1013.35 1013.88 1014.15 1014.74 1015.20 1015.61 1016.26 1016.79 1017.53 1018.55 1019.37 1020.15 1020.73 1021.17 1021.82 1021.72 1022.09
1007.81 1008.22 1008.48 1008.64 1008.81 1008.93 1008.86 1008.87 1008.98 1009.20 1009.45 1009.69 1009.91 1010.18 1010.52 1010.95 1011.23 1011.42 1011.64 1011.84 1012.05 1012.35 1012.64 1012.96 1013.25 1013.48 1013.85 1014.23 1014.69 1015.21 1015.55 1016.05 1016.66 1017.22 1017.72 1018.69 1019.66 1020.38 1020.78 1021.18 1021.62 1022.11 1022.36
1007.75 1008.18 1008.46 1008.67 1008.86 1009.07 1009.13 1009.21 1009.20 1009.35 1009.55 1009.85 1010.23 1010.50 1010.73 1011.09 1011.51 1011.79 1011.95 1012.16 1012.42 1012.75 1013.05 1013.39 1013.79 1014.13 1014.58 1014.89 1015.31 1015.66 1016.00 1016.50 1016.91 1017.59 1018.39 1019.04 1019.75 1020.05 1020.66 1020.93 1021.65 1022.13 1022.71
1007.64 1008.09 1008.44 1008.63 1008.87 1009.25 1009.34 1009.51 1009.71 1009.79 1009.94 1010.21 1010.41 1010.74 1011.14 1011.61 1011.88 1012.15 1012.38 1012.55 1012.73 1013.03 1013.41 1013.84 1014.20 1014.72 1015.18 1015.61 1015.96 1016.35 1016.76 1017.18 1017.38 1017.91 1018.31 1018.89 1019.49 1019.82 1020.25 1021.01 1021.41 1022.00 1022.51
1007.59 1008.02 1008.45 1008.63 1008.85 1009.30 1009.63 1009.85 1010.10 1010.33 1010.35 1010.66 1010.85 1011.06 1011.43 1011.98 1012.19 1012.45 1012.53 1012.80 1013.04 1013.34 1013.71 1014.10 1014.61 1015.13 1015.64 1016.06 1016.47 1016.92 1017.43 1017.81 1018.12 1018.10 1018.25 1018.61 1018.80 1019.36 1019.63 1020.39 1021.17 1022.09 1022.84
1007.35 1007.78 1008.26 1008.61 1008.93 1009.28 1009.67 1010.06 1010.43 1010.61 1010.76 1011.02 1011.21 1011.35 1011.76 1012.39 1012.56 1012.76 1012.89 1013.04 1013.27 1013.57 1014.03 1014.56 1015.07 1015.52 1016.14 1016.47 1016.80 1017.24 1017.78 1018.41 1018.80 1018.77 1018.82 1019.08 1019.24 1019.57 1019.85 1020.45 1021.26 1021.71 1022.85
1006.92 1007.36 1007.92 1008.42 1008.77 1009.22 1009.63 1010.03 1010.52 1010.77 1011.00 1011.25 1011.51 1012.01 1012.23 1012.57 1012.88 1013.06 1013.18 1013.32 1013.67 1014.01 1014.59 1015.10 1015.56 1016.08 1016.55 1016.89 1017.12 1017.35 1017.94 1018.57 1018.69 1019.11 1019.43 1019.47 1019.60 1020.19 1020.30 1020.27 1020.83 1021.64 1022.76
1006.41 1007.03 1007.72 1008.22 1008.69 1009.09 1009.61 1010.01 1010.50 1011.01 1011.34 1011.70 1012.00 1012.43 1012.80 1013.02 1013.30 1013.42 1013.60 1013.90 1014.09 1014.54 1015.08 1015.66 1016.13 1016.52 1016.90 1017.12 1017.28 1017.44 1017.82 1018.40 1019.10 1019.33 1019.68 1020.00 1020.26 1020.64 1020.97 1021.25 1021.44 1021.59 1022.49
1006.15 1006.79 1007.47 1008.13 1008.58 1009.20 1009.62 1010.23 1010.60 1011.04 1011.60 1012.00 1012.33 1012.76 1013.11 1013.40 1013.66 1013.83 1013.96 1014.14 1014.42 1014.76 1015.26 1015.81 1016.28 1016.68 1017.01 1017.23 1017.49 1017.85 1018.31 1018.71 1019.11 1019.62 1019.91 1020.38 1020.89 1021.53 1022.02 1022.10 1022.32 1022.66 1022.85
1005.92 1006.58 1007.20 1007.84 1008.47 1009.10 1009.62 1010.23 1010.85 1011.19 1011.56 1012.17 1012.48 1012.78 1013.15 1013.52 1013.77 1014.01 1014.29 1014.48 1014.80 1015.08 1015.31 1015.75 1016.22 1016.63 1016.95 1017.44 1017.85 1018.14 1018.47 1018.99 1019.28 1019.76 1020.29 1020.95 1021.54 1022.14 1022.47 1022.76 1023.27 1023.20 1023.55
1005.51 1006.32 1007.00 1007.67 1008.35 1009.03 1009.56 1010.04 1010.60 1011.22 1011.70 1012.01 1012.43 1012.84 1013.21 1013.55 1013.94 1014.22 1014.53 1014.87 1015.11 1015.39 1015.78 1016.27 1016.55 1016.91 1017.15 1017.39 1017.93 1018.28 1018.33 1018.64 1018.87 1019.38 1020.22 1021.04 1021.79 1022.32 1022.65 1022.89 1023.08 1023.61 1024.06
1004.88 1005.83 1006.68 1007.31 1007.95 1008.73 1009.32 1009.84 1010.21 1010.58 1010.87 1011.54 1011.95 1012.31 1012.93 1013.44 1013.60 1013.83 1014.23 1014.79 1015.11 1015.54 1016.16 1016.69 1017.02 1017.31 1017.56 1017.90 1018.19 1018.37 1018.62 1019.00 1019.19 1019.81 1020.39 1020.98 1021.77 1022.36 1022.81 1023.07 1023.29 1023.70 1024.23
1004.33 1005.26 1005.99 1006.74 1007.50 1008.17 1008.98 1009.92 1010.19 1010.26 1010.57 1010.94 1011.21 1011.65 1012.34 1012.53 1012.96 1013.59 1014.12 1014.67 1015.03 1015.37 1016.01 1016.55 1016.97 1017.14 1017.35 1017.59 1017.89 1018.25 1018.56 1018.74 1019.07 1019.68 1020.28 1020.79 1021.34 1021.95 1022.55 1023.25 1023.58 1023.97 1024.70
1002.99 1004.33 1005.32 1006.10 1006.89 1007.56 1008.30 1008.97 1009.77 1010.55 1010.55 1010.88 1011.17 1011.47 1011.73 1012.14 1012.78 1013.31 1013.93 1014.56 1014.94 1015.32 1015.52 1016.07 1016.37 1016.68 1016.88 1017.20 1017.42 1017.59 1017.96 1018.55 1019.12 1019.55 1019.99 1020.54 1021.13 1021.75 1022.42 1023.07 1023.67 1024.21 1025.10
1002.11 1003.03 1004.25 1005.25 1006.06 1006.77 1007.36 1008.01 1008.63 1009.36 1010.11 1010.77 1011.08 1011.33 1011.64 1012.04 1012.41 1012.91 1013.77 1014.56 1015.50 1015.50 1015.26 1015.40 1015.60 1015.83 1016.22 1016.58 1016.93 1017.24 1017.77 1018.41 1018.91 1019.48 1020.08 1020.56 1021.10 1021.56 1022.20 1022.88 1023.64 1024.36 1025.11
1001.33 1002.50 1003.29 1004.26 1005.18 1005.87 1006.61 1007.27 1007.79 1008.37 1008.86 1009.53 1010.48 1011.13 1011.46 1011.98 1012.41 1012.92 1013.31 1013.17 1013.84 1014.33 1014.44 1014.53 1014.66 1015.01 1015.47 1015.88 1016.33 1016.88 1017.41 1018.03 1018.57 1019.14 1019.69 1020.16 1020.73 1021.23 1022.06 1022.82 1023.60 1024.52 1025.50
1000.53 1001.37 1002.46 1003.52 1004.45 1005.29 1005.93 1006.51 1007.16 1007.68 1008.21 1008.69 1009.39 1009.83 1010.94 1011.86 1012.35 1012.55 1012.78 1012.63 1012.72 1012.84 1013.09 1013.40 1013.81 1014.26 1014.75 1015.22 1015.72 1016.29 1017.06 1017.79 1018.37 1018.90 1019.37 1019.96 1020.65 1021.25 1021.93 1022.59 1023.31 1024.29 1024.98
999.63 1000.87 1001.51 1002.65 1003.43 1004.08 1004.87 1005.42 1006.04 1006.64 1007.15 1007.72 1008.17 1008.72 1008.97 1009.91 1010.36 1010.86 1011.25 1011.47 1011.54 1011.68 1011.96 1012.33 1012.80 1013.23 1013.67 1014.20 1014.88 1015.57 1016.18 1016.88 1017.57 1018.09 1018.76 1019.49 1020.20 1020.75 1021.86 1023.16 1023.76 1024.21 1025.56
999.08 999.90 1000.83 1001.48 1002.40 1003.15 1003.58 1004.32 1004.96 1005.53 1006.12 1006.69 1007.20 1008.02 1008.47 1008.98 1009.03 1009.21 1009.49 1009.87 1010.24 1010.46 1010.76 1011.09 1011.21 1011.42 1011.96 1012.66 1013.37 1014.11 1014.85 1015.77 1016.54 1017.34 1018.18 1018.97 1019.60 1020.48 1021.89 1023.19 1025.14 1025.69 1026.13
999.07 999.57 1000.04 1000.65 1001.29 1002.10 1003.01 1003.35 1003.80 1004.31 1004.74 1005.27 1005.92 1006.79 1007.67 1007.81 1007.80 1007.88 1008.06 1008.45 1008.97 1009.39 1009.73 1010.07 1010.41 1010.78 1011.19 1011.50 1011.97 1012.50 1013.36 1013.89 1014.36 1015.71 1017.21 1018.25 1019.34 1020.33 1020.80 1022.01 1023.70 1025.86 1026.25
998.44 999.42 999.65 999.79 1000.57 1001.34 1001.80 1002.27 1002.73 1003.13 1003.65 1004.28 1004.71 1005.39 1006.00 1006.32 1006.52 1006.60 1006.82 1007.24 1007.74 1008.01 1008.39 1008.85 1009.17 1009.52 1009.90 1010.37 1010.89 1011.49 1011.94 1012.58 1013.80 1014.51 1016.00 1017.33 1018.63 1019.99 1021.00 1021.94 1023.74 1024.70 1025.45
997.36 997.98 999.05 999.72 999.64 1000.32 1000.87 1001.28 1001.74 1002.13 1002.63 1003.02 1003.78 1004.11 1004.58 1005.25 1005.66 1005.92 1006.17 1006.53 1006.94 1007.38 1007.64 1007.90 1008.18 1008.44 1008.94 1009.55 1010.14 1010.65 1011.42 1012.26 1013.16 1014.39 1015.52 1017.22 1018.50 1019.89 1021.28 1022.53 1023.56 1024.58 1025.76
997.11 997.18 997.77 998.76 999.27 999.59 1000.21 1000.57 1000.90 1001.30 1001.61 1001.90 1002.25 1002.91 1003.51 1004.20 1004.49 1005.02 1005.49 1006.03 1006.38 1006.69 1006.97 1007.36 1007.69 1007.99 1008.51 1009.19 1009.68 1010.36 1011.24 1012.02 1012.85 1013.68 1014.99 1015.60 1017.36 1019.14 1021.06 1021.73 1022.92 1024.02 1025.47
Wind_Speed
5 3 3 4 3 2 2 3 1 2 3 4 4 4 5 6 6 5 5 5 7 7 6 7 6 7 6 5 6 5 5 5 9 4 9 10 9 10 9 7 6 4 5
5 4 3 5 3 3 3 3 3 3 3 4 5 6 6 7 6 7 6 5 7 7 7 7 7 7 9 8 5 7 6 5 9 10 11 8 7 9 7 8 4 4 4
5 5 4 4 3 3 3 4 4 4 5 5 6 7 8 8 8 7 7 7 7 6 6 7 8 9 9 8 8 7 7 6 7 7 9 7 4 6 6 4 3 3 2
5 5 5 4 4 3 3 4 4 4 5 5 6 8 8 9 6 6 7 8 7 7 6 6 6 8 10 10 8 8 8 8 8 8 9 7 4 5 3 4 3 1 2
6 5 5 5 4 3 3 4 5 5 4 6 8 7 8 8 6 9 8 7 7 8 7 7 7 7 10 9 7 8 9 8 8 8 6 5 4 3 4 3 3 2 3
6 6 5 5 5 4 4 4 4 5 5 5 5 7 7 6 11 10 8 6 7 8 7 7 7 11 10 13 13 12 8 9 9 6 4 6 4 3 3 4 4 3 3
6 6 5 5 6 4 4 5 5 4 5 5 5 6 6 7 10 11 10 7 6 7 8 8 7 7 10 11 12 14 11 11 8 4 5 5 5 6 6 4 3 2 3
6 6 6 5 6 5 4 4 4 3 3 4 5 5 7 5 10 10 10 7 7 8 8 9 10 10 9 9 9 8 6 5 3 2 3 5 3 7 6 4 5 6 4
8 8 7 7 7 6 5 5 3 3 2 4 3 6 7 5 8 9 8 7 7 7 9 9 9 9 8 10 7 7 6 4 7 8 9 8 8 11 8 7 5 6 3
10 9 8 7 9 7 6 5 3 3 3 4 6 5 7 6 6 8 6 5 7 6 7 7 10 8 9 8 5 6 7 4 7 7 5 7 7 7 6 4 6 5 4
10 8 8 7 7 7 6 4 5 5 5 5 5 4 5 4 5 6 8 6 6 6 6 4 4 10 9 7 6 4 3 9 8 8 7 5 6 7 6 6 5 4 4
10 10 9 7 6 6 8 4 5 7 6 5 5 4 3 3 3 3 7 7 8 6 6 5 4 8 7 7 5 9 12 8 7 6 6 5 7 7 7 9 11 10 9
10 10 9 8 7 7 7 7 4 4 5 5 4 4 3 2 2 3 3 7 6 3 3 5 10 9 9 6 6 11 11 6 7 7 7 5 5 8 10 10 10 13 13
12 10 9 10 7 6 4 6 6 5 3 4 4 4 3 2 3 2 3 5 7 6 8 5 6 7 6 6 6 5 5 6 6 7 7 7 8 7 7 7 8 8 8
12 10 9 8 10 8 6 6 6 6 8 7 5 6 5 4 5 7 7 5 4 6 7 3 2 2 3 4 3 5 5 5 5 6 8 8 8 7 7 6 6 4 6
12 10 9 9 8 8 8 4 7 2 10 9 11 9 5 4 11 12 10 8 12 14 4 3 3 3 5 5 6 6 5 6 6 7 8 8 9 9 9 5 5 7 9
15 12 9 9 9 9 8 8 8 2 5 8 9 9 12 12 12 13 11 9 12 8 3 4 5 6 6 6 7 7 6 6 7 7 8 8 8 8 9 8 7 8 8
14 17 11 10 9 9 10 9 8 8 8 5 6 8 9 7 10 10 16 13 4 3 3 5 7 7 7 7 7 7 5 6 7 7 7 8 8 9 9 9 8 9 9
13 11 11 10 9 10 8 8 8 8 8 6 3 3 4 7 7 11 16 5 8 8 7 6 6 7 7 7 7 7 7 7 7 8 7 8 8 9 9 9 9 9 9
13 16 13 10 9 9 8 9 8 8 8 8 8 9 6 6 6 6 8 8 7 7 7 8 7 7 7 8 8 8 7 7 8 7 7 8 8 7 8 10 9 10 7
11 11 13 10 11 11 10 11 9 9 9 8 10 9 13 11 10 9 8 9 9 8 8 9 8 8 8 8 8 8 8 8 8 9 9 9 10 10 8 5 7 8 7
10 12 12 12 10 11 12 10 10 10 10 10 9 7 12 11 9 10 10 10 10 10 8 9 9 10 10 11 11 11 11 11 10 10 10 10 10 10 8 10 6 5 4
8 10 12 11 11 10 8 10 11 11 11 11 10 8 9 10 10 10 10 10 10 9 9 9 9 9 8 9 11 12 13 14 15 15 13 13 12 11 12 12 11 7 5
8 9 12 11 10 10 11 12 11 11 11 10 10 9 10 10 11 12 11 9 10 10 9 9 10 12 10 10 10 10 10 9 10 13 16 14 13 13 12 12 9 9 7
10 11 11 10 11 12 11 11 11 11 11 10 10 10 9 8 8 9 8 8 8 8 9 9 8 11 14 15 12 13 11 14 16 17 15 16 17 18 13 10 10 8 7
8 10 10 9 9 9 10 10 11 10 11 11 10 10 9 9 9 8 7 7 7 7 8 7 8 12 13 12 15 17 18 19 21 22 16 18 18 15 12 13 15 9 10
Wind_Direction
154 177 196 100 103 100 103 93 98 148 151 152 141 123 114 121 120 114 116 128 117 123 121 120 115 112 113 107 86 89 95 100 121 107 120 120 120 116 108 102 111 141 132
153 173 157 111 96 91 78 85 102 123 140 146 133 117 114 113 117 120 126 122 118 124 124 123 118 117 111 117 113 103 110 105 125 122 130 131 124 116 117 114 139 123 139
148 153 130 121 102 94 105 79 77 101 114 120 116 116 117 116 118 115 111 102 103 119 117 121 122 121 117 115 119 114 111 102 117 114 131 126 94 123 107 98 110 110 146
150 143 139 140 127 112 110 92 85 110 118 114 115 118 119 124 121 119 108 103 101 103 102 112 119 123 121 119 115 115 121 114 109 112 118 120 110 100 103 120 116 72 94
153 142 155 144 126 113 117 91 85 96 108 120 123 121 121 124 128 130 121 118 108 105 102 96 99 101 101 111 123 119 120 117 115 114 94 102 108 121 138 143 108 107 65
157 152 153 138 122 121 112 90 89 101 108 101 96 120 122 119 130 123 124 122 116 121 114 102 103 103 99 102 94 81 94 120 112 110 110 127 128 122 121 137 126 135 143
159 149 156 148 127 135 114 96 86 102 104 114 120 121 119 128 129 125 124 129 118 113 120 125 116 110 110 108 94 92 87 86 77 112 137 144 144 168 146 132 131 128 93
163 156 157 151 137 135 110 95 95 85 119 96 102 112 119 128 137 118 113 114 115 117 128 123 120 118 108 117 114 100 93 93 100 112 141 153 139 147 131 142 140 103 96
170 171 164 157 147 142 134 124 98 100 106 95 106 108 113 120 125 129 116 112 103 103 121 128 125 125 132 119 102 103 102 86 50 69 72 79 115 141 145 125 121 126 89
175 178 163 160 157 159 157 151 113 101 102 108 107 101 124 130 136 129 109 108 109 102 95 91 101 133 138 130 115 133 124 141 129 107 87 71 84 90 67 56 142 134 126
172 159 157 160 161 157 149 154 133 113 99 95 92 89 109 131 144 140 127 128 132 124 125 133 145 154 162 150 125 130 118 133 113 112 104 93 82 78 69 63 61 107 121
160 161 161 156 160 149 147 135 132 128 120 114 112 91 78 100 107 164 134 113 139 139 152 152 145 162 172 168 152 115 109 114 121 117 114 98 97 93 85 82 78 77 63
159 165 165 156 152 155 149 144 133 135 140 143 138 130 129 107 97 134 151 140 134 120 150 145 139 153 151 150 144 140 141 146 138 133 135 131 126 122 109 97 96 88 71
167 167 159 161 152 152 144 158 152 157 153 155 154 154 148 146 143 136 139 128 110 92 103 90 90 84 73 98 99 160 159 162 157 149 145 124 126 129 133 138 112 106 88
167 166 168 168 168 163 167 171 177 187 176 171 186 168 161 188 210 175 162 163 161 131 114 98 99 102 132 147 147 167 159 156 151 143 148 146 148 143 137 132 124 111 111
166 170 174 170 174 169 165 148 52 194 196 197 170 167 206 198 168 178 181 145 135 143 95 137 167 175 180 175 172 173 184 179 161 151 150 154 155 154 151 146 116 117 117
172 171 171 169 175 173 176 179 181 62 172 196 199 203 180 181 176 181 168 138 156 151 156 174 184 190 197 190 185 184 184 184 155 164 165 161 154 149 148 144 137 132 124
173 164 169 175 179 179 183 188 189 186 190 187 215 202 217 210 189 162 137 117 134 240 191 187 199 195 196 194 194 194 182 165 171 165 163 159 156 154 154 154 152 145 145
168 171 172 172 177 179 179 182 190 192 197 184 143 166 186 169 158 147 168 178 183 196 206 207 202 199 200 197 197 192 182 180 176 171 166 162 159 157 157 156 150 147 136
176 166 166 170 167 172 177 185 189 194 195 195 195 205 146 134 181 182 195 205 202 204 199 206 203 198 193 195 191 183 176 165 171 176 168 159 156 157 157 159 159 154 152
171 166 166 168 177 180 183 190 192 194 199 201 209 193 178 187 200 196 197 203 208 209 204 202 202 202 194 188 184 184 186 183 179 170 164 164 162 156 144 142 144 136 120
172 168 174 181 178 185 189 188 191 194 199 203 212 196 178 204 202 200 201 202 205 211 210 211 210 200 190 186 183 183 182 179 172 172 171 163 157 141 121 117 114 102 108
177 177 180 185 187 183 179 191 193 197 200 204 207 193 183 203 210 209 206 204 200 204 204 198 197 197 199 196 188 184 181 181 181 170 166 157 148 143 135 134 131 142 147
167 186 196 187 183 187 192 196 200 199 201 205 199 200 198 201 208 214 211 203 201 209 205 201 205 206 199 191 186 189 191 173 167 162 153 146 140 137 134 129 138 149 136
176 171 185 205 187 192 196 197 199 201 201 199 206 207 201 205 211 215 213 207 209 205 207 206 206 204 195 190 187 179 148 141 146 144 139 138 135 131 135 136 140 132 119
204 185 189 190 195 186 197 198 203 203 203 204 199 201 193 200 211 210 199 194 200 205 201 197 197 187 171 171 164 148 148 146 147 149 144 143 140 138 147 144 146 145 158